FLOCK 3S 2

导读 | 星芒AI

FLOCK 3S 2 是由 Planet Labs 运营的一颗地球观测卫星,属于其“SkySat”星座的一部分。该卫星主要用于高分辨率光学成像,能够提供亚米级的影像数据,广泛应用于环境监测、农业、城市规划和灾害评估等领域。FLOCK 3S 2 具备快速重访能力和灵活的任务调度,支持实时或近实时的数据获取。卫星采用小型化设计,降低了发射和运营成本,提升了星座的整体效率和覆盖能力。

基本信息
目录编号:
43821
目录名称:
FLOCK 3S 2
国际标识:
2018-099BR
轨道中心:
EARTH
卫星名称:
FLOCK 3S 2
卫星全名:
--
卫星状态:
已陨落 最后检测时间 2025-09-03
发射日期:
2018-12-03 UTC
国别 :
美国 (US)
星等 :
--
轨道信息
数据来源 国际轨道数据
星历时间: 2025-09-02T21:58:10+0800
轨道信息已过期104天
半长轴: 6575.963km
偏心率: 0.0007594
轨道倾角: 97.472°
近地点辐角 302.317°
升交点赤经 326.626°
平近点角 57.739°
近地点: 192.834km
远地点: 202.822km
周期: 88.450分钟
每日圈数: 16.280353
详细信息
使用方式:
暂无